DW5249 Folkston GA US current weather conditions

sailwx.info

Wind from 250

Air temperature 30.6° C
Dewpoint 25.8° C

Last reported at 2020-Aug-11 18:00 UTC.
Time now 2020-Aug-11 18:34 UTC

Location: N 30°51' W 081°59'.
View on Google Maps.

See reports from other nearby stations

  
Tides and Currents Weather Stations Pressure Air Temp Water Temp Dewpoint Dewpoint Depression Visibility Wind Speed Wind Dir Waves Ship Positions
date/time (UTC)wind fromknots sea level pressurealtimeterstation pressurevisibilityair tempwater tempwave heightnotes
2020-Aug-11 18:00 250 30.6
2020-Aug-11 17:45 250 31.7
2020-Aug-11 17:30 248 0 gusting 6 30.6
2020-Aug-11 17:15 242 0 gusting 4 30.6
2020-Aug-11 17:00 236 29.4
2020-Aug-11 16:45 243 2 gusting 6 29.4
2020-Aug-11 16:30 248 0 gusting 6 30.0
2020-Aug-11 16:15 254 1 gusting 6 29.4
2020-Aug-11 16:00 251 29.4
2020-Aug-11 15:45 249 28.3
2020-Aug-11 15:32 246 28.3
2020-Aug-11 15:16 240 0 gusting 6 27.8
2020-Aug-11 15:02 256 27.2
2020-Aug-11 14:46 252 26.7
2020-Aug-11 14:32 251 0 gusting 2 25.6
2020-Aug-11 14:16 251 0 gusting 4 25.0
2020-Aug-11 13:46 241 2 gusting 5 25.0
2020-Aug-11 13:31 225 24.4
2020-Aug-11 13:15 144 24.4
2020-Aug-11 13:01 144 23.9
2020-Aug-11 12:46 144 23.3
2020-Aug-11 12:30 144 23.3
2020-Aug-11 12:15 144 23.3
2020-Aug-11 12:01 144 22.8
2020-Aug-11 11:45 144 22.8
2020-Aug-11 11:30 232 22.8
2020-Aug-11 11:15 232 22.8
2020-Aug-11 11:01 232 22.2
2020-Aug-11 10:45 232 22.2
2020-Aug-11 10:30 232 22.2
2020-Aug-11 10:15 232 0 gusting 3 22.8
2020-Aug-11 10:00 232 22.8
2020-Aug-11 09:46 232 22.8
2020-Aug-11 09:30 232 0 gusting 2 22.8
2020-Aug-11 09:15 232 22.8
2020-Aug-11 09:00 232 22.8
2020-Aug-11 08:46 232 22.8
2020-Aug-11 08:30 232 22.8
2020-Aug-11 08:15 232 22.8
2020-Aug-11 08:00 232 22.8
2020-Aug-11 07:45 232 22.8
2020-Aug-11 07:30 232 22.8
2020-Aug-11 07:15 232 22.8
2020-Aug-11 07:00 232 22.8
2020-Aug-11 06:45 232 22.8
2020-Aug-11 06:31 232 22.8
2020-Aug-11 06:16 232 22.2
2020-Aug-11 06:02 232 22.8
2020-Aug-11 05:46 232 22.8
2020-Aug-11 05:32 232 22.8
2020-Aug-11 05:17 232 22.8
2020-Aug-11 05:01 232 22.8
2020-Aug-11 04:46 232 22.8
2020-Aug-11 04:32 232 22.8
2020-Aug-11 04:15 232 22.8
2020-Aug-11 04:01 232 22.2
2020-Aug-11 03:45 232 22.2
2020-Aug-11 03:30 232 22.2
2020-Aug-11 03:16 232 22.2
2020-Aug-11 03:00 232 22.2
2020-Aug-11 02:45 232 22.8
2020-Aug-11 02:30 232 23.3
2020-Aug-11 02:15 223 24.4
2020-Aug-11 02:00 223 24.4
2020-Aug-11 01:45 223 24.4
2020-Aug-11 01:30 223 23.9
2020-Aug-11 01:15 260 24.4
2020-Aug-11 01:00 260 24.4
2020-Aug-11 00:45 262 0 gusting 6 24.4
2020-Aug-11 00:30 244 3 gusting 6 24.4
2020-Aug-11 00:15 274 2 gusting 7 24.4
2020-Aug-11 00:01 286 4 gusting 8 24.4
2020-Aug-10 23:47 242 4 gusting 9 24.4
2020-Aug-10 23:32 298 0 gusting 3 24.4
2020-Aug-10 23:16 317 25.0
2020-Aug-10 23:01 315 25.6
2020-Aug-10 22:47 313 25.6
2020-Aug-10 22:31 313 25.6
2020-Aug-10 22:16 314 0 gusting 2 25.6
2020-Aug-10 22:01 314 26.1
2020-Aug-10 21:45 253 0 gusting 2 27.8
2020-Aug-10 21:30 251 28.9
2020-Aug-10 21:16 251 0 gusting 4 29.4
2020-Aug-10 21:00 114 30.6
2020-Aug-10 20:45 114 31.1
2020-Aug-10 20:30 114 31.1
2020-Aug-10 20:15 114 31.7
2020-Aug-10 20:00 114 33.3
2020-Aug-10 02:31 129 21.7
2020-Aug-10 02:15 129 21.7
2020-Aug-10 02:00 246 21.7
2020-Aug-10 01:45
2020-Aug-10 01:30 099 21.7
2020-Aug-10 01:16 098 21.7
2020-Aug-10 01:01 112 21.7
2020-Aug-10 00:46
2020-Aug-10 00:32 071 1 gusting 6 22.2
2020-Aug-10 00:16 084 1 gusting 7 22.8
2020-Aug-10 00:01
2020-Aug-09 23:46
2020-Aug-09 23:32 355 6 gusting 13 28.9
2020-Aug-09 23:16 090 29.4
2020-Aug-09 23:00 134 0 gusting 3 29.4
2020-Aug-09 22:46 109 30.0
2020-Aug-09 22:30 104 30.6
2020-Aug-09 22:15 103 31.1
2020-Aug-09 22:01 126 0 gusting 3 31.1
2020-Aug-09 21:46 140 0 gusting 4 32.2
2020-Aug-09 21:31 080 2 gusting 5 32.8
2020-Aug-09 21:16 167 33.9
2020-Aug-09 21:01 199 0 gusting 3 33.9
2020-Aug-09 20:46 146 34.4
2020-Aug-09 20:31 146 33.9
2020-Aug-09 20:15 146 0 gusting 4 33.9
2020-Aug-09 20:01 248 33.3
2020-Aug-09 19:46 221 33.3
2020-Aug-09 19:30 171 33.3
2020-Aug-09 19:15 167 33.3
2020-Aug-09 19:01 245 1 gusting 6 33.3
2020-Aug-09 18:46 265 33.3
2020-Aug-09 18:30 268 33.3
2020-Aug-09 18:15 267 32.8
2020-Aug-09 18:00 244 33.3